Theta_e
355 359 363 362 361 359 358 358 358 358 358 358 357 357 358 357 355 353 351 350 348 347 346 345 344 344 343 344 344 344 345 345 347 348 350 352 354 356 357 357 358 354 359
359 359 362 361 360 359 359 358 359 357 356 356 356 355 354 352 350 347 346 345 344 343 343 342 342 341 341 341 341 341 341 341 342 344 348 349 354 354 356 356 358 357 358
358 357 359 361 359 357 356 357 355 354 354 352 353 352 350 348 346 344 343 342 341 341 341 340 340 340 339 340 339 339 339 338 339 341 344 343 349 352 350 353 356 355 356
357 358 357 359 359 356 355 354 353 352 351 350 350 348 347 345 343 341 339 338 337 337 337 337 337 336 337 337 337 336 336 337 338 340 336 339 338 349 348 350 355 354 353
358 357 357 357 357 354 355 354 353 352 350 348 347 346 344 341 339 337 336 336 336 335 335 336 334 332 332 332 332 333 335 337 338 336 335 336 337 343 346 345 356 356 356
355 355 357 357 357 355 353 352 351 350 348 346 344 342 340 337 337 336 336 336 335 334 334 334 332 332 332 332 333 336 339 341 342 333 334 336 335 341 340 341 351 352 355
351 353 357 356 355 353 351 351 350 347 344 343 342 340 338 337 336 336 336 335 335 335 334 333 333 333 332 333 335 338 340 341 337 329 330 334 334 339 334 336 345 353 352
351 352 354 355 355 355 353 351 348 345 343 342 341 339 337 335 335 335 335 335 335 334 334 333 333 334 334 336 337 338 339 340 331 329 330 330 339 334 331 336 341 352 352
349 350 352 352 355 355 353 350 346 344 342 342 340 339 337 337 336 334 334 334 335 336 335 335 334 334 336 337 338 339 339 340 334 330 329 333 347 341 337 338 340 349 352
349 348 350 348 355 354 352 348 346 344 342 340 339 339 338 337 337 337 338 337 336 336 338 339 340 340 339 340 340 341 340 339 333 332 329 340 347 347 343 339 340 344 352
346 347 349 350 350 351 346 347 346 344 342 341 339 338 338 340 339 341 343 339 336 338 340 342 343 344 344 344 346 343 341 333 331 331 331 342 341 341 345 347 340 344 350
344 345 347 351 348 348 345 349 341 340 339 340 341 343 341 342 342 336 339 337 337 340 342 343 344 346 343 337 336 343 337 333 331 330 330 337 336 336 340 346 345 348 349
346 346 346 350 352 348 344 344 341 342 342 343 343 343 343 341 341 339 338 338 340 341 339 341 339 338 337 334 333 332 330 331 330 330 333 336 334 332 336 337 344 346 346
346 348 348 348 349 351 345 342 340 340 341 341 341 343 342 340 344 341 339 338 339 338 339 338 336 338 336 336 334 332 330 330 329 329 330 337 334 333 334 337 337 336 338
346 349 349 348 351 349 348 344 340 339 339 338 341 341 339 341 340 343 342 341 342 339 338 337 337 336 336 335 334 333 330 329 329 329 330 340 336 335 334 336 338 339 339
348 350 351 350 355 351 350 345 339 332 331 333 339 337 339 339 339 339 338 338 338 341 338 340 338 337 336 334 332 334 331 329 329 330 327 329 341 338 335 335 337 338 339
348 352 353 352 353 354 352 345 339 338 335 335 334 337 337 340 342 341 337 335 338 343 343 339 338 337 336 335 334 334 332 332 327 328 326 326 327 340 338 336 335 337 338
349 351 352 351 352 353 350 345 341 343 340 337 334 335 336 338 343 341 337 337 344 341 338 336 336 334 336 336 333 332 332 331 330 326 326 325 324 322 333 338 336 335 337
346 346 348 349 351 350 350 348 348 348 343 343 341 339 341 340 340 342 343 341 344 337 336 331 331 333 329 330 331 332 328 328 328 326 322 320 322 323 320 325 338 336 334
347 347 352 350 350 351 348 348 347 346 346 348 345 344 342 341 337 337 336 339 335 331 329 330 331 328 325 324 321 323 326 329 329 325 326 320 319 318 317 324 325 328 333
347 348 349 349 351 348 344 342 343 341 341 342 341 340 337 337 336 337 332 332 332 329 327 328 325 323 318 319 315 315 317 319 322 325 327 323 317 318 317 318 324 324 326
343 346 348 346 348 346 343 345 347 343 342 341 339 339 338 336 334 333 332 327 329 324 326 324 322 316 316 317 311 311 307 311 314 324 322 319 315 317 317 314 318 327 327
343 344 342 345 345 347 347 345 344 343 342 342 342 336 334 334 331 329 327 326 324 322 316 321 320 320 313 315 320 311 306 304 311 315 318 318 316 315 313 313 317 325 329
341 342 343 345 345 345 346 343 343 337 334 334 334 335 335 331 327 325 325 323 323 320 322 320 319 319 318 311 312 313 315 315 307 306 316 316 317 312 313 313 318 323 326
342 340 341 343 344 344 344 342 340 337 333 331 332 331 333 330 326 323 323 323 322 320 321 321 320 319 317 313 311 310 311 310 315 310 305 308 314 315 315 317 323 322 327
341 340 342 341 343 342 341 340 338 334 329 327 328 322 324 323 322 325 323 322 322 322 321 320 321 320 317 316 314 313 309 308 310 312 310 308 310 313 318 319 321 322 325
Wind_Speed
15 18 16 16 15 14 13 13 12 12 12 12 11 11 11 12 13 11 11 11 10 9 9 8 8 8 8 8 8 8 8 8 8 7 7 6 3 2 3 5 8 2 7
19 19 15 15 15 13 13 12 11 10 9 10 11 11 12 12 11 10 10 9 9 9 8 8 7 7 7 7 7 7 7 7 7 7 9 12 9 3 2 4 8 6 5
15 16 15 13 13 11 10 9 9 8 7 8 10 11 10 10 10 9 9 8 8 7 7 7 6 7 7 7 7 7 7 6 6 7 11 11 12 9 4 4 5 2 2
14 12 14 12 12 11 10 9 9 9 8 8 8 9 9 9 9 8 8 7 6 6 6 6 6 7 6 6 6 6 6 7 8 11 11 12 7 12 8 4 4 3 3
18 14 16 13 11 12 11 10 10 10 9 9 8 9 9 8 7 8 7 6 5 5 5 5 4 4 4 5 5 6 6 8 11 14 15 6 7 10 7 2 8 9 7
14 13 20 14 12 12 11 10 10 10 9 9 9 8 8 7 7 7 6 6 5 5 5 4 3 3 4 4 5 6 7 10 13 15 12 4 6 11 5 1 4 3 7
15 16 16 15 13 12 12 11 10 9 8 8 8 7 7 7 7 6 6 6 6 6 5 4 3 3 3 3 4 6 9 13 14 14 6 4 6 8 5 3 6 7 7
14 15 17 14 14 11 11 10 10 9 9 8 8 7 7 6 6 6 5 5 5 5 4 3 2 3 4 5 6 8 9 13 15 16 4 7 9 4 2 6 9 8 9
13 13 16 14 13 13 12 12 10 10 9 9 8 7 7 7 7 5 4 3 2 1 1 2 2 3 5 6 7 8 10 14 14 13 5 2 11 7 7 9 11 11 11
13 12 16 15 16 14 14 12 11 11 10 8 8 8 7 7 9 9 9 7 4 3 3 4 5 6 8 10 12 12 12 15 16 15 7 9 11 8 5 10 12 12 12
10 10 11 18 9 8 15 13 12 11 9 9 9 8 9 10 12 14 8 9 3 4 6 8 9 11 13 16 18 16 14 9 13 7 2 11 8 6 8 10 12 12 13
10 10 8 16 10 9 7 13 11 11 10 9 9 9 10 3 5 8 1 8 9 11 13 14 15 16 13 12 4 15 9 13 8 6 4 10 7 6 8 8 10 12 12
10 7 8 13 7 9 7 7 6 6 5 5 4 5 1 2 4 6 4 7 8 13 8 10 11 10 9 9 9 9 12 12 8 7 5 11 7 4 8 8 7 8 10
10 9 8 12 11 6 5 6 6 6 5 2 5 5 2 4 3 3 5 8 8 6 4 5 7 9 12 12 14 13 13 10 8 7 5 11 8 5 5 11 9 7 8
9 9 9 6 10 9 8 5 1 4 5 4 2 4 5 4 5 4 4 4 5 10 8 5 9 10 11 13 14 12 11 13 12 8 6 10 11 10 8 10 13 13 12
9 8 7 5 12 10 6 4 6 5 5 2 1 4 7 6 4 6 6 6 8 7 6 9 9 9 10 11 11 12 11 9 11 12 7 8 13 13 13 12 13 16 16
5 4 8 4 4 7 5 6 4 3 3 4 3 7 6 5 5 7 5 4 6 6 10 8 11 10 12 12 14 12 10 12 9 8 6 11 11 16 16 16 14 14 18
3 5 6 7 9 8 7 5 6 7 4 6 5 10 7 6 5 6 5 6 4 7 7 6 5 7 9 10 10 12 12 13 14 9 9 12 10 11 9 15 15 15 15
3 3 3 4 9 9 9 6 5 6 7 5 8 3 5 2 6 5 5 7 4 6 6 7 10 10 9 10 11 11 11 9 11 8 5 8 17 17 10 12 14 15 16
5 4 6 6 6 6 7 6 5 5 4 4 3 4 5 4 4 3 7 5 5 8 9 9 9 10 12 12 12 10 10 10 10 5 9 2 5 11 14 21 9 10 18
7 7 8 9 9 7 7 6 5 5 6 6 5 3 2 4 3 2 6 6 6 8 9 9 10 12 11 12 13 13 9 14 15 11 6 7 5 7 17 21 12 9 10
8 8 8 10 7 5 4 7 3 5 5 3 3 5 2 2 4 4 5 7 8 8 8 9 10 10 11 11 13 13 13 12 12 5 4 4 3 3 5 19 26 8 8
11 9 9 9 6 4 5 4 3 3 3 2 4 4 4 2 4 5 5 6 7 7 8 8 9 11 10 11 12 7 9 10 11 10 7 2 3 2 3 17 21 7 8
11 10 8 6 5 4 2 1 3 5 4 6 4 6 3 4 4 5 4 5 6 7 7 8 8 9 10 11 10 8 9 10 8 8 5 6 7 6 8 14 17 7 9
10 9 8 6 5 4 3 2 3 3 5 3 2 3 3 2 2 3 5 6 6 6 6 7 8 9 8 9 10 10 9 7 9 6 10 8 8 10 11 14 16 5 8
13 11 9 9 7 5 5 6 7 6 5 6 5 5 1 2 1 6 6 6 6 6 7 7 8 9 9 9 9 9 8 6 7 7 8 9 9 8 8 5 2 4 7
Wind_Direction
130 137 153 151 151 149 143 134 126 123 122 123 131 121 109 97 88 79 73 69 68 66 63 61 54 47 44 40 34 30 23 15 5 356 341 313 289 359 4 338 329 290 122
130 147 156 152 142 142 134 132 124 130 134 120 103 92 79 80 84 82 81 77 75 69 59 54 46 42 36 37 32 26 21 11 353 340 312 279 231 181 56 341 342 49 118
136 143 157 143 141 142 140 130 134 123 104 115 86 91 96 94 92 86 83 78 69 66 60 46 36 27 24 20 20 13 7 356 333 309 286 271 172 150 78 357 348 18 93
134 150 150 137 140 138 143 135 126 124 114 112 114 105 101 99 94 90 78 69 64 60 53 48 40 28 26 20 13 1 344 331 309 291 270 236 281 122 96 33 311 252 226
147 157 132 150 148 149 138 140 135 130 130 123 112 108 104 99 93 84 80 78 78 74 69 71 59 38 19 13 0 340 327 311 292 279 258 321 345 103 106 96 224 216 214
148 161 134 151 156 151 151 144 140 134 131 127 122 119 116 112 107 109 103 98 95 87 76 69 52 22 2 354 342 329 317 304 295 264 239 183 252 105 101 17 283 216 184
158 134 143 150 157 160 158 151 142 136 132 132 133 134 133 135 135 128 113 103 97 91 86 77 57 26 0 333 328 323 320 313 295 296 312 276 260 126 102 269 263 237 200
155 152 131 153 164 158 155 147 145 143 146 150 153 150 149 147 155 154 145 124 103 88 77 61 33 357 334 322 315 314 316 311 303 287 279 292 69 60 173 239 254 239 215
149 154 146 164 174 158 152 152 156 155 159 162 164 162 165 173 181 190 186 161 120 55 17 354 322 300 291 288 284 287 296 295 294 283 272 268 60 31 315 281 259 245 216
157 176 151 160 164 175 157 161 162 164 165 172 175 179 188 195 196 207 210 194 190 230 273 282 286 284 281 273 262 257 257 273 267 268 311 70 59 31 315 268 264 252 226
163 175 182 147 172 187 153 157 167 168 168 182 190 192 207 223 184 183 127 150 194 257 267 260 252 254 252 257 243 243 253 268 269 306 310 96 80 38 328 261 246 246 218
166 169 189 124 142 205 158 146 186 169 182 192 193 175 225 72 12 338 132 178 208 227 239 239 243 241 248 260 185 219 242 262 300 285 301 111 87 36 325 310 232 225 220
160 180 190 132 140 212 187 172 186 160 166 173 181 218 156 322 206 225 247 207 218 202 253 205 233 228 297 334 315 303 301 305 292 283 99 119 111 71 309 295 263 222 212
168 179 203 146 170 203 221 195 189 185 160 244 188 187 249 239 217 280 328 333 344 313 293 336 297 343 311 311 298 295 289 297 297 296 289 143 136 146 248 279 263 243 214
165 171 212 202 151 179 226 207 341 129 117 29 311 6 328 292 273 312 348 332 336 317 306 277 296 290 277 277 281 305 308 290 284 289 298 152 173 189 213 251 256 251 236
157 181 216 209 139 194 196 78 84 80 107 174 204 341 295 301 347 318 302 318 313 298 355 308 313 299 302 300 289 289 287 291 289 291 293 297 186 195 209 226 250 248 245
173 187 173 209 185 195 166 112 100 116 155 100 176 233 254 277 276 287 293 295 293 271 297 306 283 318 308 304 304 297 308 306 306 300 274 262 268 203 207 210 222 245 250
228 166 168 191 180 183 185 178 205 196 191 210 212 219 224 242 257 279 294 271 311 304 307 283 252 312 306 287 280 289 282 262 269 290 311 297 275 303 224 219 218 230 244
203 288 272 171 159 170 168 175 192 181 212 216 238 214 209 238 247 263 265 274 294 286 287 323 347 318 314 308 303 299 288 307 301 313 352 24 4 341 273 267 211 226 240
131 143 112 129 126 139 144 178 181 172 184 199 172 202 185 253 309 290 273 28 315 323 335 354 314 325 312 311 307 310 308 309 289 268 287 339 329 324 340 317 235 222 231
128 113 132 141 138 161 170 155 158 176 188 175 172 146 161 182 168 357 344 357 0 337 337 333 344 315 318 318 314 303 302 292 268 263 274 293 282 308 341 323 258 245 227
125 127 132 131 136 156 154 127 195 170 180 163 122 162 122 60 71 32 1 351 15 338 325 10 330 318 317 328 317 314 322 309 298 305 281 316 348 215 235 303 301 249 288
131 136 143 131 125 81 101 118 139 103 85 150 183 171 107 76 29 56 27 10 348 314 336 345 334 330 320 319 325 336 320 304 325 313 324 250 215 210 162 284 283 283 247
136 140 131 117 133 112 217 228 127 187 201 142 166 61 107 35 29 47 16 355 339 325 357 333 338 318 331 319 328 330 318 296 308 308 272 256 237 209 254 244 270 276 267
130 128 130 137 123 126 82 51 197 341 150 152 65 123 26 133 252 12 354 339 339 316 336 329 328 333 323 333 319 324 324 316 316 288 297 305 218 206 228 241 243 280 266
148 153 151 153 146 132 96 88 61 58 14 359 38 310 351 278 301 97 356 343 323 330 337 325 335 326 323 311 326 320 321 318 306 301 297 295 324 299 259 276 285 312 272